TimeCST,TemperatureF,Dew PointF,Humidity,Sea Level PressureIn,VisibilityMPH,Wind Direction,Wind SpeedMPH,Gust SpeedMPH,PrecipitationIn,Events,Conditions,WindDirDegrees,DateUTC
12:19 AM,50.0,42.8,76,30.15,8.0,NE,6.9,-,N/A,,Overcast,40,2013-01-09 06:19:00
12:53 AM,48.9,42.1,77,30.16,9.0,North,8.1,-,N/A,,Overcast,360,2013-01-09 06:53:00
1:53 AM,48.9,43.0,80,30.15,10.0,NNE,9.2,-,N/A,,Overcast,20,2013-01-09 07:53:00
2:01 AM,48.2,42.8,82,30.15,10.0,North,9.2,-,N/A,,Overcast,10,2013-01-09 08:01:00
2:53 AM,48.9,43.0,80,30.15,9.0,NNE,11.5,-,N/A,,Overcast,20,2013-01-09 08:53:00
3:53 AM,48.9,43.0,80,30.17,8.0,North,13.8,-,N/A,,Overcast,10,2013-01-09 09:53:00
4:30 AM,48.2,42.8,82,30.15,8.0,NNE,12.7,-,N/A,,Overcast,20,2013-01-09 10:30:00
4:43 AM,48.2,42.8,82,30.14,7.0,NNE,16.1,-,N/A,,Overcast,20,2013-01-09 10:43:00
4:50 AM,48.2,42.8,82,30.15,8.0,North,12.7,-,N/A,,Overcast,10,2013-01-09 10:50:00
4:53 AM,48.9,43.0,80,30.15,9.0,North,12.7,-,N/A,,Overcast,10,2013-01-09 10:53:00
5:01 AM,48.2,42.8,82,30.15,9.0,NNE,16.1,-,N/A,,Overcast,20,2013-01-09 11:01:00
5:08 AM,48.2,42.8,82,30.15,10.0,North,15.0,-,N/A,,Overcast,10,2013-01-09 11:08:00
5:32 AM,48.2,42.8,82,30.17,10.0,North,17.3,-,N/A,,Overcast,10,2013-01-09 11:32:00
5:53 AM,48.9,42.1,77,30.19,8.0,North,16.1,-,N/A,,Overcast,10,2013-01-09 11:53:00
6:28 AM,48.2,42.8,82,30.19,7.0,NNE,16.1,-,N/A,,Overcast,20,2013-01-09 12:28:00
6:53 AM,48.0,43.0,83,30.20,7.0,NNE,16.1,-,N/A,,Overcast,20,2013-01-09 12:53:00
7:08 AM,48.2,42.8,82,30.20,7.0,NNE,17.3,-,N/A,,Overcast,20,2013-01-09 13:08:00
7:53 AM,48.9,43.0,80,30.21,8.0,NNE,20.7,-,N/A,,Overcast,20,2013-01-09 13:53:00
8:12 AM,48.2,42.8,82,30.21,8.0,NNE,19.6,-,N/A,,Overcast,30,2013-01-09 14:12:00
8:53 AM,48.0,42.1,80,30.25,7.0,North,16.1,-,N/A,,Overcast,10,2013-01-09 14:53:00
9:10 AM,48.2,44.6,87,30.25,5.0,NNE,18.4,25.3,N/A,,Overcast,30,2013-01-09 15:10:00
9:53 AM,48.0,43.0,83,30.27,6.0,NNE,18.4,-,N/A,,Haze,20,2013-01-09 15:53:00
10:53 AM,48.0,43.0,83,30.25,4.0,NNE,19.6,28.8,N/A,,Haze,20,2013-01-09 16:53:00
11:10 AM,46.4,42.8,87,30.24,1.8,NNE,20.7,-,0.00,Rain,Light Rain,20,2013-01-09 17:10:00
11:32 AM,46.4,42.8,87,30.23,3.0,NNE,18.4,-,0.00,,Overcast,20,2013-01-09 17:32:00
12:22 PM,46.4,44.6,93,30.20,3.0,NNE,17.3,-,N/A,,Overcast,30,2013-01-09 18:22:00
12:53 PM,46.9,44.1,90,30.17,4.0,NNE,20.7,-,N/A,,Overcast,20,2013-01-09 18:53:00
1:23 PM,48.2,44.6,87,30.14,4.0,NNE,24.2,32.2,0.00,Rain,Light Rain,20,2013-01-09 19:23:00
1:45 PM,48.2,44.6,87,30.12,4.0,NNE,25.3,32.2,0.00,Rain,Light Rain,20,2013-01-09 19:45:00
1:53 PM,48.0,45.0,89,30.12,4.0,NNE,25.3,34.5,0.00,,Overcast,20,2013-01-09 19:53:00
2:53 PM,48.0,45.0,89,30.13,4.0,NNE,23.0,32.2,0.00,Rain,Light Rain,30,2013-01-09 20:53:00
3:53 PM,48.9,46.0,90,30.12,5.0,NNE,18.4,-,0.00,,Overcast,30,2013-01-09 21:53:00
4:53 PM,48.9,46.0,90,30.14,8.0,NNE,18.4,-,0.00,,Overcast,30,2013-01-09 22:53:00
5:14 PM,48.2,46.4,93,30.13,2.5,NNE,19.6,-,0.00,Rain,Light Rain,30,2013-01-09 23:14:00
5:25 PM,48.2,46.4,93,30.11,3.0,NNE,20.7,-,0.01,Rain,Light Rain,30,2013-01-09 23:25:00
5:53 PM,48.0,46.0,93,30.10,4.0,NNE,19.6,-,0.01,Rain,Light Rain,20,2013-01-09 23:53:00
6:53 PM,48.0,46.9,96,30.11,5.0,NNE,15.0,-,0.00,,Overcast,20,2013-01-10 00:53:00
7:53 PM,50.0,48.0,93,30.09,6.0,NNE,17.3,-,0.01,Rain,Light Rain,30,2013-01-10 01:53:00
8:53 PM,51.1,48.9,92,30.08,10.0,NE,16.1,21.9,0.03,,Overcast,50,2013-01-10 02:53:00
9:53 PM,51.1,48.9,92,30.08,6.0,ENE,13.8,-,N/A,,Overcast,70,2013-01-10 03:53:00
10:32 PM,51.8,48.2,88,30.06,1.8,ENE,13.8,-,0.04,Rain,Heavy Rain,60,2013-01-10 04:32:00
10:43 PM,51.8,48.2,88,30.06,3.0,ENE,11.5,-,0.04,Rain,Light Rain,60,2013-01-10 04:43:00
10:53 PM,51.1,48.9,92,30.06,3.0,ENE,9.2,-,0.05,Rain,Light Rain,60,2013-01-10 04:53:00
11:53 PM,51.1,48.9,92,30.04,9.0,NE,11.5,-,0.02,Rain,Light Rain,50,2013-01-10 05:53:00